Weather History for Holloman AFB, NM

Change the Weather History Date:

Sunday, February 3, 2013

  Actual Average Record
Temperature  
Mean Temperature 44 °F -  
Max Temperature 59 °F 55 °F 68 °F (1998)
Min Temperature 29 °F 27 °F -16 °F (2011)
Degree Days  
Heating Degree Days 21    
Moisture  
Dew Point 14 °F    
Average Humidity 30    
Maximum Humidity 52    
Minimum Humidity 17    
Precipitation  
Precipitation 0.00 in - - ()
Sea Level Pressure  
Sea Level Pressure 30.06 in    
Wind  
Wind Speed 2 mph (East)    
Max Wind Speed 9 mph    
Max Gust Speed -    
Visibility 10 miles    
Events      
Averages and records for this station are not official NWS values.
T = Trace of Precipitation, MM = Missing Value Source: NWS Daily Summary

Daily Weather History Graph

Daily Weather History Graph

Search for Another Location

Airport:

Trip Planner

Search our weather history database for the weather conditions in past years. The results will help you decide how hot, cold, wet, or windy it might be!

Date:

Astronomy

Feb. 03, 2013 Rise Set
Actual Time 6:57 AM MST 5:39 PM MST
Civil Twilight 6:32 AM MST 6:04 PM MST
Nautical Twilight 6:02 AM MST 6:34 PM MST
Astronomical Twilight 5:33 AM MST 7:03 PM MST
Moon 12:27 AM MST (2/3) 11:20 AM MST (2/3)
Length of Visible Light 11h 32m
Length of Day
10h 41m
Waning Gibbous, 48% of the Moon is Illuminated
Feb 3
Waning Gibbous
Feb 10
New
Feb 17
First Quarter
Feb 25
Full
Mar 4
Last Quarter

Hourly Weather History & Observations

Time (MST) Temp. Windchill Dew Point Humidity Pressure Visibility Wind Dir Wind Speed Gust Speed Precip Events Conditions
12:58 AM 31.6 °F - 1.4 °F 28% 30.22 in 10.0 mi Calm Calm - N/A   Clear
1:58 AM 34.7 °F - 4.3 °F 28% 30.19 in 10.0 mi Calm Calm - N/A   Clear
2:58 AM 35.6 °F - 6.4 °F 30% 30.19 in 10.0 mi Calm Calm - N/A   Clear
3:58 AM 30.2 °F 23.4 °F 4.8 °F 34% 30.19 in 10.0 mi ENE 6.9 mph - N/A   Clear
4:58 AM 31.3 °F 23.9 °F 5.4 °F 34% 30.17 in 10.0 mi ENE 8.1 mph - N/A   Clear
5:58 AM 31.3 °F - 5.5 °F 34% 30.19 in 10.0 mi West 2.3 mph - N/A   Clear
6:58 AM 29.8 °F 23.9 °F 5.4 °F 35% 30.19 in 10.0 mi ENE 5.8 mph - N/A   Clear
7:58 AM 34.5 °F - 7.7 °F 33% 30.19 in 10.0 mi NNE 1.2 mph - N/A   Clear
8:58 AM 42.6 °F - 12.0 °F 29% 30.17 in 10.0 mi Calm Calm - N/A   Clear
9:58 AM 46.9 °F - 13.8 °F 26% 30.17 in 10.0 mi Calm Calm - N/A   Mostly Cloudy
10:58 AM 50.9 °F - 13.6 °F 23% 30.15 in 10.0 mi WNW 2.3 mph - N/A   Scattered Clouds
11:58 AM 52.0 °F - 14.4 °F 22% 30.09 in 10.0 mi Calm Calm - N/A   Partly Cloudy
12:58 PM 55.6 °F - 14.9 °F 20% 30.03 in 10.0 mi NE 1.2 mph - N/A   Partly Cloudy
1:58 PM 56.7 °F - 15.1 °F 20% 29.98 in 10.0 mi East 2.3 mph - N/A   Clear
2:58 PM 59.7 °F - 15.1 °F 17% 29.94 in 10.0 mi SW 2.3 mph - N/A   Partly Cloudy
3:58 PM 59.4 °F - 14.9 °F 18% 29.94 in 10.0 mi Calm Calm - N/A   Clear
4:58 PM 58.6 °F - 15.4 °F 18% 29.92 in 10.0 mi South 4.6 mph - N/A   Clear
5:58 PM 56.5 °F - 16.2 °F 21% 29.93 in 10.0 mi West 3.5 mph - N/A   Clear
6:58 PM 51.4 °F - 17.8 °F 26% 29.95 in 10.0 mi Variable 1.2 mph - N/A   Clear
7:58 PM 51.6 °F - 16.2 °F 25% 29.94 in 10.0 mi ENE 4.6 mph - N/A   Clear
8:58 PM 54.0 °F - 28.9 °F 38% 29.93 in 10.0 mi SSW 9.2 mph - N/A   Clear
9:58 PM 49.8 °F - 31.8 °F 50% 29.92 in 10.0 mi SE 8.1 mph - N/A   Clear
10:58 PM 48.6 °F - 31.8 °F 52% 29.89 in 10.0 mi ESE 8.1 mph - N/A   Partly Cloudy
11:58 PM 47.8 °F - 31.1 °F 52% 29.89 in 10.0 mi SE 2.3 mph - N/A   Overcast